Change the Weather History Date:

Saturday, November 23, 2013

  Actual Average Record
Temperature  
Mean Temperature 10 °F -  
Max Temperature 16 °F 35 °F 55 °F (1968)
Min Temperature 3 °F 20 °F -4 °F (1950)
Degree Days  
Heating Degree Days 56    
Moisture  
Dew Point 0 °F    
Average Humidity 66    
Maximum Humidity 84    
Minimum Humidity 53    
Precipitation  
Precipitation 0.00 in - - ()
Sea Level Pressure  
Sea Level Pressure 30.52 in    
Wind  
Wind Speed 13 mph (NW)    
Max Wind Speed 24 mph    
Max Gust Speed 30 mph    
Visibility 10 miles    
Events Snow    
Averages and records for this station are not official NWS values.
T = Trace of Precipitation, MM = Missing Value Source: NWS Daily Summary

Daily Weather History Graph

Daily Weather History Graph

Search for Another Location

Airport or City:

Trip Planner

Search our weather history database for the weather conditions in past years. The results will help you decide how hot, cold, wet, or windy it might be!

Date:

Astronomy

Nov. 23, 2013 Rise Set
Actual Time 7:05 AM CST 4:20 PM CST
Civil Twilight 6:32 AM CST 4:52 PM CST
Nautical Twilight 5:56 AM CST 5:28 PM CST
Astronomical Twilight 5:21 AM CST 6:04 PM CST
Moon 9:54 PM CST (11/23) 11:16 AM CST (11/23)
Length of Visible Light 10h 19m
Length of Day
9h 14m
Waning Gibbous, 69% of the Moon is Illuminated
Nov 23
Waning Gibbous
Nov 25
Last Quarter
Dec 2
New
Dec 9
First Quarter
Dec 17
Full

Hourly Weather History & Observations

Time (CST) Temp. Windchill Dew Point Humidity Pressure Visibility Wind Dir Wind Speed Gust Speed Precip Events Conditions
12:15 AM 16.9 °F 4.8 °F 6.8 °F 65% 30.35 in 10.0 mi NW 10.4 mph 20.7 mph N/A   Overcast
12:35 AM 16.3 °F 2.7 °F 7.7 °F 69% 30.35 in 10.0 mi NNW 12.7 mph 20.7 mph N/A   Overcast
12:55 AM 16.3 °F 2.1 °F 9.7 °F 75% 30.36 in 5.0 mi North 13.8 mph - N/A Snow Light Snow
1:15 AM 15.6 °F -1.3 °F 7.7 °F 71% 30.36 in 10.0 mi NNW 19.6 mph 24.2 mph N/A   Overcast
1:35 AM 14.0 °F -2.5 °F 3.9 °F 64% 30.37 in 10.0 mi NW 17.3 mph 23.0 mph N/A   Scattered Clouds
1:55 AM 13.1 °F -2.0 °F 2.1 °F 62% 30.38 in 10.0 mi NW 13.8 mph 20.7 mph N/A   Clear
2:15 AM 12.4 °F -2.3 °F 2.5 °F 65% 30.39 in 10.0 mi NW 12.7 mph 18.4 mph N/A   Clear
2:35 AM 11.8 °F -3.0 °F 3.6 °F 69% 30.39 in 10.0 mi NW 12.7 mph 23.0 mph N/A   Clear
2:55 AM 11.1 °F -4.5 °F 3.2 °F 70% 30.39 in 10.0 mi NW 13.8 mph 21.9 mph N/A   Clear
3:15 AM 10.4 °F -6.0 °F 3.6 °F 74% 30.40 in 10.0 mi WNW 15.0 mph 19.6 mph N/A   Clear
3:35 AM 9.5 °F -5.9 °F 3.2 °F 76% 30.40 in 10.0 mi WNW 12.7 mph 20.7 mph N/A   Clear
3:55 AM 9.3 °F -6.1 °F 3.2 °F 76% 30.41 in 10.0 mi NW 12.7 mph 20.7 mph N/A   Clear
4:15 AM 9.1 °F -6.4 °F 3.4 °F 77% 30.42 in 10.0 mi WNW 12.7 mph 18.4 mph N/A   Mostly Cloudy
4:35 AM 8.8 °F -6.1 °F 3.6 °F 79% 30.43 in 10.0 mi WNW 11.5 mph 17.3 mph N/A   Mostly Cloudy
4:55 AM 8.4 °F -6.5 °F 3.6 °F 81% 30.43 in 10.0 mi NW 11.5 mph - N/A   Scattered Clouds
5:15 AM 8.1 °F -7.7 °F 3.7 °F 83% 30.44 in 10.0 mi WNW 12.7 mph - N/A   Scattered Clouds
5:35 AM 8.1 °F -6.2 °F 4.1 °F 84% 30.45 in 10.0 mi WNW 10.4 mph - N/A Snow Light Snow
5:55 AM 8.2 °F -5.1 °F 4.1 °F 83% 30.46 in 10.0 mi WNW 9.2 mph - N/A   Scattered Clouds
6:15 AM 9.3 °F -2.8 °F 4.6 °F 81% 30.47 in 10.0 mi NNW 8.1 mph - N/A   Overcast
6:35 AM 10.0 °F -4.5 °F 3.2 °F 74% 30.47 in 10.0 mi North 11.5 mph - N/A   Overcast
6:55 AM 10.2 °F -5.7 °F 3.2 °F 73% 30.48 in 10.0 mi North 13.8 mph 18.4 mph N/A   Overcast
7:15 AM 9.5 °F -6.6 °F 0.7 °F 67% 30.48 in 10.0 mi NNW 13.8 mph 20.7 mph N/A   Mostly Cloudy
7:35 AM 9.5 °F -7.2 °F 0.1 °F 66% 30.49 in 10.0 mi NNW 15.0 mph - N/A   Mostly Cloudy
7:55 AM 9.1 °F -9.3 °F -0.4 °F 65% 30.50 in 10.0 mi NNW 18.4 mph 23.0 mph N/A   Scattered Clouds
8:15 AM 8.8 °F -8.1 °F -1.1 °F 64% 30.52 in 10.0 mi NNW 15.0 mph 26.5 mph N/A   Clear
8:35 AM 9.1 °F -10.3 °F -1.3 °F 63% 30.53 in 10.0 mi North 20.7 mph 27.6 mph N/A   Scattered Clouds
8:55 AM 9.5 °F -8.8 °F -0.8 °F 63% 30.54 in 10.0 mi NNW 18.4 mph 26.5 mph N/A   Scattered Clouds
9:15 AM 10.8 °F -9.4 °F -0.0 °F 62% 30.54 in 10.0 mi NNW 24.2 mph 28.8 mph N/A   Mostly Cloudy
9:35 AM 10.9 °F -6.5 °F -0.4 °F 60% 30.55 in 10.0 mi NNW 17.3 mph 29.9 mph N/A   Overcast
9:55 AM 10.4 °F -8.2 °F -1.1 °F 60% 30.56 in 10.0 mi North 19.6 mph 25.3 mph N/A   Overcast
10:15 AM 10.4 °F -7.7 °F -1.3 °F 59% 30.56 in 10.0 mi North 18.4 mph 23.0 mph N/A   Overcast
10:35 AM 11.7 °F -5.5 °F -0.9 °F 57% 30.56 in 10.0 mi NNW 17.3 mph 27.6 mph N/A   Overcast
10:55 AM 11.7 °F -6.0 °F -0.9 °F 57% 30.56 in 10.0 mi NNW 18.4 mph - N/A   Overcast
11:15 AM 12.0 °F -5.1 °F -0.0 °F 59% 30.56 in 10.0 mi NNW 17.3 mph 21.9 mph N/A   Overcast
11:35 AM 11.8 °F -5.3 °F 2.5 °F 66% 30.55 in 7.0 mi NNW 17.3 mph 23.0 mph N/A   Overcast
11:55 AM 12.0 °F -6.5 °F -1.5 °F 55% 30.55 in 10.0 mi NNW 20.7 mph 28.8 mph N/A   Mostly Cloudy
12:15 PM 12.4 °F -4.1 °F -1.8 °F 53% 30.55 in 10.0 mi NNW 16.1 mph 26.5 mph N/A   Scattered Clouds
12:35 PM 12.7 °F -4.1 °F -1.5 °F 53% 30.56 in 10.0 mi NNW 17.3 mph 25.3 mph N/A   Scattered Clouds
12:55 PM 13.6 °F -3.9 °F 0.3 °F 55% 30.56 in 10.0 mi North 19.6 mph 25.3 mph N/A   Mostly Cloudy
1:15 PM 12.4 °F -3.5 °F -0.8 °F 56% 30.56 in 10.0 mi NNW 15.0 mph 20.7 mph N/A   Mostly Cloudy
1:35 PM 11.7 °F -5.5 °F -1.7 °F 55% 30.56 in 10.0 mi NNW 17.3 mph 21.9 mph N/A   Scattered Clouds
1:55 PM 13.3 °F -1.1 °F -1.1 °F 53% 30.56 in 10.0 mi NNW 12.7 mph - N/A   Scattered Clouds
2:15 PM 11.7 °F -4.4 °F -0.4 °F 58% 30.56 in 10.0 mi North 15.0 mph 18.4 mph N/A   Overcast
2:35 PM 11.8 °F -4.2 °F -0.4 °F 58% 30.56 in 10.0 mi NNW 15.0 mph - N/A   Mostly Cloudy
2:55 PM 11.3 °F -4.9 °F -1.3 °F 57% 30.56 in 10.0 mi NNW 15.0 mph - N/A   Mostly Cloudy
3:15 PM 12.2 °F -4.3 °F -1.1 °F 55% 30.57 in 10.0 mi NNW 16.1 mph - N/A   Mostly Cloudy
3:35 PM 11.7 °F -2.5 °F -1.7 °F 55% 30.57 in 10.0 mi NW 11.5 mph 21.9 mph N/A   Overcast
3:55 PM 10.6 °F -2.2 °F -1.8 °F 57% 30.58 in 10.0 mi NW 9.2 mph 16.1 mph N/A   Scattered Clouds
4:15 PM 10.4 °F -2.4 °F -1.3 °F 59% 30.58 in 10.0 mi NW 9.2 mph - N/A   Mostly Cloudy
4:35 PM 10.2 °F -4.3 °F 0.5 °F 65% 30.59 in 10.0 mi NW 11.5 mph 16.1 mph N/A   Mostly Cloudy
4:55 PM 10.0 °F -3.7 °F -0.8 °F 62% 30.59 in 10.0 mi NW 10.4 mph 16.1 mph N/A   Mostly Cloudy
5:15 PM 9.1 °F -6.4 °F -1.5 °F 62% 30.60 in 10.0 mi WNW 12.7 mph 20.7 mph N/A   Mostly Cloudy
5:35 PM 8.6 °F -5.5 °F -1.8 °F 63% 30.61 in 10.0 mi NW 10.4 mph 17.3 mph N/A   Scattered Clouds
5:55 PM 8.2 °F -4.1 °F -2.2 °F 63% 30.60 in 10.0 mi NW 8.1 mph - N/A   Clear
6:15 PM 7.2 °F -4.3 °F -2.2 °F 66% 30.60 in 10.0 mi NW 6.9 mph - N/A   Clear
6:35 PM 7.0 °F -3.3 °F -2.2 °F 66% 30.60 in 10.0 mi NW 5.8 mph - N/A   Clear
6:55 PM 6.6 °F -3.7 °F -2.2 °F 67% 30.60 in 10.0 mi NW 5.8 mph - N/A   Clear
7:15 PM 5.9 °F -4.5 °F -2.2 °F 69% 30.60 in 10.0 mi WNW 5.8 mph - N/A   Clear
7:35 PM 5.9 °F -8.0 °F -1.8 °F 70% 30.59 in 10.0 mi WNW 9.2 mph - N/A   Clear
7:55 PM 5.9 °F -8.0 °F -2.0 °F 70% 30.59 in 10.0 mi WNW 9.2 mph - N/A   Clear
8:15 PM 5.5 °F -8.4 °F -2.2 °F 70% 30.58 in 10.0 mi West 9.2 mph - N/A   Clear
8:35 PM 5.4 °F -8.6 °F -2.2 °F 71% 30.58 in 10.0 mi West 9.2 mph - N/A   Clear
8:55 PM 5.7 °F -9.1 °F -2.2 °F 70% 30.58 in 10.0 mi West 10.4 mph - N/A   Scattered Clouds
9:15 PM 6.6 °F -8.0 °F -1.8 °F 68% 30.58 in 10.0 mi WNW 10.4 mph - N/A   Overcast
9:35 PM 6.6 °F -7.1 °F -2.2 °F 67% 30.57 in 10.0 mi West 9.2 mph 16.1 mph N/A   Overcast
9:55 PM 5.7 °F -7.2 °F -2.4 °F 69% 30.56 in 10.0 mi WNW 8.1 mph - N/A   Scattered Clouds
10:15 PM 5.2 °F -6.7 °F -2.6 °F 70% 30.56 in 10.0 mi West 6.9 mph - N/A   Clear
10:35 PM 4.6 °F -7.4 °F -2.7 °F 72% 30.57 in 10.0 mi West 6.9 mph - N/A   Clear
10:55 PM 3.7 °F -7.1 °F -3.1 °F 73% 30.56 in 10.0 mi West 5.8 mph - N/A   Clear
11:15 PM 3.6 °F -8.7 °F -3.1 °F 74% 30.56 in 10.0 mi West 6.9 mph - N/A   Clear
11:35 PM 3.6 °F -9.8 °F -2.9 °F 74% 30.56 in 10.0 mi West 8.1 mph - N/A   Clear
11:55 PM 3.0 °F -8.0 °F -3.1 °F 76% 30.56 in 10.0 mi West 5.8 mph - N/A   Clear